Winfield, KS

7:19 AM CST on November 21, 2019 (GMT -0600)
Strother

Weather History for KWLD - August, 2019

Change the Weather History Date:

Wednesday, August 21, 2019

  Actual Average Record
Temperature  
Mean Temperature 82 °F -  
Max Temperature 93 °F 90 °F 102 °F (2001)
Min Temperature 70 °F 67 °F 55 °F (2016)
Cooling Degree Days 18    
Growing Degree Days 32 (Base 50)    
Moisture  
Dew Point 69 °F    
Average Humidity 69    
Maximum Humidity 90    
Minimum Humidity 50    
Precipitation  
Precipitation 0.02 in - - ()
Sea Level Pressure  
Sea Level Pressure 29.96 in    
Wind  
Wind Speed 8 mph ()    
Max Wind Speed 24 mph    
Max Gust Speed 60 mph    
Visibility 10.0 miles    
Events Rain , Thunderstorm    
Averages and records for this station are not official NWS values.
T = Trace of Precipitation, MM = Missing Value Source: Averaged Metar Reports

Daily Weather History Graph

Daily Weather History Graph

Search for Another Location

Airport or City:

Astronomy

Aug. 21, 2019 Rise Set
Actual Time 6:49 AM CDT 8:12 PM CDT
Civil Twilight 6:22 AM CDT 8:39 PM CDT
Nautical Twilight 5:49 AM CDT 9:12 PM CDT
Astronomical Twilight 5:15 AM CDT 9:46 PM CDT
Moon 11:38 PM CDT 12:19 PM CDT
Length of Visible Light 14h 17m
Length of Day
13h 22m
Waning Gibbous, 69% of the Moon is Illuminated
Aug 21
Waning Gibbous
Aug 23
Last Quarter
Aug 30
New
Sep 5
First Quarter
Sep 13
Full

Hourly Weather History & Observations

Time (CDT) Temp. Heat Index Dew Point Humidity Pressure Visibility Wind Dir Wind Speed Gust Speed Precip Events Conditions
12:54 AM 82.9 °F 88.0 °F 72.0 °F 69% 29.96 in 10.0 mi SSE 9.2 mph - N/A   Clear
1:54 AM 81.0 °F 85.2 °F 72.0 °F 74% 29.94 in 10.0 mi South 9.2 mph - N/A   Clear
2:54 AM 79.0 °F - 71.1 °F 77% 29.91 in 10.0 mi South 9.2 mph - N/A   Clear
3:54 AM 78.1 °F - 71.1 °F 79% 29.91 in 10.0 mi South 5.8 mph - N/A   Clear
4:54 AM 75.0 °F - 71.1 °F 87% 29.93 in 10.0 mi Calm Calm - N/A   Clear
5:54 AM 73.0 °F - 70.0 °F 90% 29.95 in 10.0 mi South 4.6 mph - N/A   Clear
6:54 AM 75.0 °F - 71.1 °F 87% 29.97 in 10.0 mi Calm Calm - N/A   Clear
7:54 AM 75.9 °F - 72.0 °F 87% 29.99 in 10.0 mi SSE 3.5 mph - N/A   Clear
8:54 AM 79.0 °F - 72.0 °F 79% 29.98 in 10.0 mi SSE 4.6 mph - N/A   Clear
9:54 AM 84.0 °F 89.6 °F 72.0 °F 67% 29.98 in 10.0 mi SSE 9.2 mph - N/A   Partly Cloudy
10:54 AM 87.1 °F 92.8 °F 71.1 °F 59% 30.00 in 10.0 mi ENE 8.1 mph - N/A   Scattered Clouds
11:54 AM 90.0 °F 97.9 °F 73.0 °F 57% 30.01 in 10.0 mi ENE 6.9 mph - N/A   Clear
12:54 PM 91.9 °F 99.5 °F 72.0 °F 52% 29.99 in 10.0 mi Variable 3.5 mph - N/A   Clear
1:54 PM 91.9 °F 98.4 °F 71.1 °F 50% 29.97 in 10.0 mi NNE 10.4 mph - N/A   Scattered Clouds
2:54 PM 91.9 °F 98.4 °F 71.1 °F 50% 29.95 in 10.0 mi Variable 4.6 mph - N/A   Clear
3:54 PM 93.0 °F 100.7 °F 72.0 °F 50% 29.90 in 10.0 mi ESE 11.5 mph 18.4 mph N/A   Clear
4:54 PM 93.0 °F 100.7 °F 72.0 °F 50% 29.88 in 10.0 mi SE 12.7 mph 20.7 mph N/A   Clear
6:54 PM 90.0 °F 96.9 °F 72.0 °F 55% 29.86 in 10.0 mi SE 9.2 mph - N/A   Clear
8:54 PM 84.9 °F 90.1 °F 71.1 °F 63% 29.89 in 10.0 mi ESE 8.1 mph - N/A   Clear
9:26 PM 75.0 °F - 64.0 °F 69% 30.03 in 10.0 mi North 24.2 mph 59.8 mph N/A   Squalls
9:45 PM 72.0 °F - 64.0 °F 76% 30.02 in 10.0 mi NNE 19.6 mph 31.1 mph N/A Thunderstorm Scattered Clouds
9:54 PM 73.0 °F - 64.0 °F 73% 29.99 in 10.0 mi NNE 18.4 mph 25.3 mph N/A   Scattered Clouds
9:59 PM 73.9 °F - 64.0 °F 71% 30.02 in 10.0 mi NNE 17.3 mph 25.3 mph N/A Thunderstorm Thunderstorm
10:19 PM 75.0 °F - 64.0 °F 69% 30.01 in 10.0 mi ENE 12.7 mph - 0.00 in   Mostly Cloudy
10:43 PM 75.9 °F - 64.0 °F 67% 30.00 in 10.0 mi NE 6.9 mph - 0.00 in Thunderstorm Mostly Cloudy
10:54 PM 77.0 °F - 64.0 °F 64% 29.96 in 10.0 mi NE 5.8 mph - 0.00 in Thunderstorm Mostly Cloudy
11:21 PM 75.0 °F - 66.0 °F 73% 30.01 in 10.0 mi ENE 16.1 mph 23.0 mph 0.01 in Rain , Thunderstorm Light Thunderstorms and Rain
11:54 PM 70.0 °F - 66.0 °F 87% 29.98 in 10.0 mi SE 11.5 mph 23.0 mph 0.02 in Rain , Thunderstorm Light Thunderstorms and Rain